Location: Bergnershof
(48.9468°N, 10.9431°E)
Time: 07:08:39
(UTC+00:00)

Meteor 1-25 Rocket - Visible Passes

Search period start: 21 June 2021 00:00
Search period end: 01 July 2021 00:00
Orbit: 838 x 890 km, 81.2° (Epoch: 20 June)

Date Brightness Start Highest point End Pass type
(mag) Time Alt. Az. Time Alt. Az. Time Alt. Az.
24 Jun 5.5 02:31:33 10° SSE 02:37:01 43° E 02:42:27 10° NNE visible
25 Jun 5.5 02:23:35 10° SSE 02:29:02 43° E 02:34:29 10° NNE visible
26 Jun 5.4 02:15:37 10° SSE 02:21:04 43° E 02:26:29 10° NNE visible
27 Jun 5.4 02:07:38 10° SSE 02:13:05 43° E 02:18:30 10° NNE visible
28 Jun 5.4 01:59:41 10° SSE 02:05:06 43° E 02:10:31 10° NNE visible
29 Jun 5.4 01:51:42 10° SSE 01:57:08 42° E 02:02:32 10° NNE visible
30 Jun 5.4 01:43:44 10° SSE 01:49:09 42° E 01:54:33 10° NNE visible
